Hourly Data Report for October 28, 2013

All times are specified in Local Standard Time (LST). Add 1 hour to adjust for Daylight Saving Time where and when it is observed.

CHARLOTTETOWN A
PRINCE EDWARD ISLAND

46°17'21.000" N
63°07'09.000" W
48.50 m
8300301
71706
YYG

Download Data

Hourly Data (October 2013)
Hourly Data Report for October 28, 2013
Temp Definition
°C
Dew Point Temp Definition
°C
Rel Hum Definition
%
Wind Dir Definition
10's deg

Wind Spd Definition
km/h
Visibility Definition
km
Stn Press Definition
kPa
Hmdx Definition


Wind Chill Definition


Weather Definition


TIME
00:00 Legend Double Dagger 5.1 3.9 92 24 12 24.1 100.35     LegendNANA
01:00 Legend Double Dagger 4.9 3.7 92 25 10 24.1 100.36     LegendNANA
02:00 Legend Double Dagger 5.1 4.1 93 24 9 24.1 100.37     Mostly Cloudy
03:00 Legend Double Dagger 5.2 4.0 92 25 11 24.1 100.36     LegendNANA
04:00 Legend Double Dagger 5.5 3.7 88 25 17 24.1 100.38     LegendNANA
05:00 Legend Double Dagger 5.2 3.7 90 25 19 24.1 100.42     Mostly Cloudy
06:00 Legend Double Dagger 4.4 3.2 92 23 13 24.1 100.45     LegendNANA
07:00 Legend Double Dagger 4.8 3.2 89 24 18 24.1 100.48     LegendNANA
08:00 Legend Double Dagger 4.8 2.8 87 25 17 24.1 100.55     Mostly Cloudy
09:00 Legend Double Dagger 5.5 2.2 79 27 20 24.1 100.61     LegendNANA
10:00 Legend Double Dagger 6.1 0.2 66 29 18 24.1 100.66     LegendNANA
11:00 Legend Double Dagger 6.5 0.4 65 29 17 24.1 100.72     Mostly Cloudy
12:00 Legend Double Dagger 6.8 -0.6 59 27 29 24.1 100.68     LegendNANA
13:00 Legend Double Dagger 5.9 -1.7 58 27 24 24.1 100.69     LegendNANA
14:00 Legend Double Dagger 6.5 -1.9 55 25 26 24.1 100.73     Mainly Clear
15:00 Legend Double Dagger 6.6 -2.6 52 25 26 24.1 100.78     LegendNANA
16:00 Legend Double Dagger 6.7 -1.7 55 25 17 24.1 100.84     LegendNANA
17:00 Legend Double Dagger 6.6 -1.3 57 27 15 24.1 100.89     Mostly Cloudy
18:00 Legend Double Dagger 6.4 -1.5 57 28 14 24.1 100.97     LegendNANA
19:00 Legend Double Dagger 5.1 0.3 71 28 18 24.1 101.10     LegendNANA
20:00 Legend Double Dagger 3.6 0.7 81 29 10 24.1 101.18     Mostly Cloudy
21:00 Legend Double Dagger 2.7 0.3 84 28 12 24.1 101.29     LegendNANA
22:00 Legend Double Dagger 2.6 -0.5 80 28 14 24.1 101.40     LegendNANA
23:00 Legend Double Dagger 1.8 -1.1 81 27 13 24.1 101.46     Mainly Clear

Notes on Data Quality.

Legend

  • E = Estimated
  • M = Missing
  • NA = Not Available
  • ‡ = Partner data that is not subject to review by the National Climate Archives
Date modified: